Location: Krasnoyarskiy Pitomnik
(51.1333°N, 71.6167°E)
Time: 23:18:12
(UTC+00:00)

NOSS 2-2 (C) - Pass Details

Date: 31 May 2022
Orbit: 439 x 1763 km, 63.3° (Epoch: 02 June)

Event Time Altitude Azimuth Distance (km) Brightness Sun altitude
Rises 16:51:14 0° 316° (NW) 2,762 8.8 -10.7°
Reaches altitude 10° 16:53:18 10° 325° (NW) 1,988 7.8 -10.8°
Maximum altitude 16:57:31 40° 36° (NE) 1,099 5.0 -11.2°
Drops below altitude 10° 17:03:14 10° 105° (ESE) 2,694 6.4 -11.6°
Enters shadow 17:04:41 - 109° (ESE) 3,229 6.8 -11.8°
